Lid_Strength_Index
9 12 12 9 9 8 9 11 12 11 9 10 11 11 9 8 7 7 7 7 6 5 4 3 2 2 2 1 1 1 1 1 1 1 2 1 2 1 1 0 0 3 2 -0
11 12 8 8 8 7 9 11 12 11 9 10 10 11 9 8 8 7 7 7 6 5 4 3 3 2 2 2 2 1 1 1 1 1 1 1 1 1 0 0 2 2 1 1
11 9 7 8 9 9 9 11 12 12 10 8 10 13 11 9 7 7 6 6 5 6 5 4 3 3 2 2 2 2 1 1 1 1 1 1 1 1 2 1 1 1 0 -0
10 7 7 8 9 9 12 8 9 9 11 15 10 18 13 11 10 8 7 7 6 5 5 4 4 3 3 2 1 1 1 1 1 0 1 2 2 3 2 1 1 0 0 0
10 8 9 8 8 7 9 7 8 9 11 13 12 16 14 11 12 10 8 7 6 5 5 4 4 3 2 2 2 1 1 1 1 1 1 1 2 2 1 1 1 1 0 0
8 6 7 8 7 7 6 8 9 10 12 17 14 14 16 14 12 10 8 6 6 5 5 4 3 3 2 2 2 1 2 1 1 1 1 1 2 2 2 2 1 1 1 0
9 8 8 7 9 8 8 12 15 18 18 18 13 14 15 11 9 8 8 7 6 5 5 4 4 4 3 3 2 2 2 2 1 1 1 1 1 2 1 2 2 2 1 1
12 14 10 7 9 10 10 12 15 19 19 17 12 17 14 9 8 7 6 6 5 5 5 4 4 3 3 3 2 2 2 2 1 1 1 1 1 1 1 1 1 1 1 1
12 12 8 7 7 9 11 12 10 13 13 17 16 13 10 9 8 8 8 7 6 5 4 4 4 3 3 3 2 2 2 2 2 1 1 1 1 1 2 2 1 1 1 0
10 12 9 8 8 8 11 9 13 13 19 20 17 17 16 12 11 9 9 8 6 5 5 4 4 3 3 2 2 2 2 2 2 1 1 1 1 1 1 1 1 1 1 0
9 10 10 9 10 11 10 12 12 13 16 20 20 18 11 11 10 10 9 7 7 5 5 4 4 3 3 2 2 2 2 2 2 1 1 1 1 1 1 1 1 1 1 0
8 11 13 12 8 7 9 11 12 15 18 16 17 17 9 9 8 8 8 7 6 5 5 4 4 4 3 3 3 2 2 2 2 1 1 1 1 1 1 1 1 0 1 0
8 11 14 14 11 9 11 10 10 11 13 17 18 17 8 8 8 7 8 7 6 6 5 5 4 4 4 3 3 2 2 2 2 1 1 1 1 1 1 1 1 1 1 1
5 11 12 14 13 12 12 10 10 12 15 16 16 14 11 9 9 8 7 7 6 6 5 5 5 4 4 4 3 2 2 2 2 2 2 2 2 1 1 1 1 1 0 1
9 12 11 10 9 10 10 10 9 12 13 15 14 12 11 10 9 8 7 6 6 6 6 5 5 5 4 3 3 2 3 2 3 3 3 2 1 1 1 1 1 1 1 1
8 11 11 11 8 10 11 10 9 10 10 11 11 12 9 8 8 8 7 7 7 6 6 5 5 4 4 3 3 3 2 2 2 3 3 1 1 1 1 1 1 1 1 1
9 11 12 14 10 10 13 11 10 10 10 10 14 11 8 9 8 8 7 7 7 6 6 5 5 4 4 3 3 3 2 2 2 2 2 2 1 2 2 1 1 1 1 1
10 11 11 14 12 17 12 8 8 9 9 9 10 9 8 8 8 7 6 6 6 6 5 5 4 4 3 3 3 2 2 2 2 2 2 2 1 2 1 2 2 2 1 2
8 10 12 14 15 13 11 9 9 11 12 8 9 9 7 7 7 8 5 5 5 5 4 4 4 3 3 2 2 2 2 2 2 2 2 2 1 2 2 2 2 2 3 2
8 8 10 12 16 17 12 7 6 7 15 8 8 8 8 8 12 10 5 4 5 4 4 4 3 3 3 2 2 3 3 3 3 2 2 1 1 2 2 2 2 2 2 2
11 11 13 13 14 13 8 7 6 14 14 7 7 7 7 9 8 6 4 4 4 4 4 3 3 3 3 3 3 3 3 3 2 2 2 1 1 2 3 3 4 4 4 4
12 13 13 12 14 17 6 7 11 9 7 6 7 6 7 6 6 5 5 5 4 4 4 3 3 3 3 4 4 3 3 2 2 2 2 2 2 2 3 4 5 5 5 5
12 10 12 11 13 8 7 7 7 6 7 6 6 5 5 6 6 5 5 5 4 4 4 3 3 3 4 4 4 5 5 2 2 2 2 2 3 2 3 4 4 5 5 6
8 7 10 10 9 8 7 6 5 5 5 5 4 5 4 5 5 5 5 4 4 4 4 3 3 4 5 4 5 5 4 2 2 3 3 3 4 5 6 6 6 5 5 5
8 8 9 10 8 7 6 5 5 4 4 4 4 4 4 4 5 5 5 4 4 4 3 3 3 3 4 4 5 5 4 3 3 3 4 5 6 8 10 12 12 9 13 13
7 9 10 11 8 8 7 5 4 5 5 4 4 4 4 4 4 4 4 4 4 4 3 3 3 3 3 4 4 5 4 4 5 5 6 5 6 7 8 10 11 12 12 13